Find Shiyan 32-01

NORAD ID: 66376 Int'l Des: 2025-255 Owner: CASC Country: CN operational
LEOCIRCULAR

Aktuelle Ansicht

3D-Globus wird geladen...

Über Shiyan 32-01

Beschreibung wird geladen...

Nächste Überflüge

Passes for default location (London). Set your location on the main map for personalized predictions.

Höhenverlauf

Loading altitude history...

Zweizeiliger Elementsatz

1 66376U 25255A 26146.19460900 .00022120 00000-0 38668-3 0 9996
2 66376 52.9927 111.7729 0009688 194.6392 165.4337 15.50555598 30805
Epoch: 26. Mai 2026 • Age: 10 hours

Aktueller Status

Höhe 422.7 km
Geschwindigkeit 7.66 km/s
Subsatellitenpunkt -39.48°S, 140.6°W
Startdatum 8. Nov. 2025
Alter 0.5 years
Typ other

Technische Details

Klassifizierung Payload
Masse 50.00 kg
Trockenmasse 50.00 kg
Gesamtmasse 50.00 kg
Länge 1.50 m
Durchmesser 1.50 m
Spannweite 8.00 m
Form Box+panels
Hersteller SISE
Phasenstatus In Orbit
Besitzer/Staat CASC/CN

Most Searched